User: anonymous   Login
Location: Unspecified
(0.0000°N, 0.0000°E)
Time: 12:23:53
(UTC+00:00)
Language:

OPTUS D3 - Orbit

View from above orbital plane
View from above orbital plane
View from above satellite
View from above satellite

Ground track
Ground track

The orbit data is extracted from the following two-line orbital elements,

1 35756U 09044B   15057.55656041 -.00000174  00000-0  00000+0 0  9995
2 35756 000.0408 323.7233 0004111 011.6456 177.0527 01.00272498 20232
Epoch (UTC): 26 February 2015 13:21:26
Eccentricity: 0.0004111
inclination: 0.0408°
perigee height: 35768 km
apogee height: 35803 km
right ascension of ascending node: 323.7233°
argument of perigee: 11.6456°
revolutions per day: 1.00272498
mean anomaly at epoch: 177.0527°
orbit number at epoch: 2023

The dashed part of the orbit path shows where the satellite is in the earth's shadow,  

DLR